Home > Weather > Steffisburg > Past weeks

Flag for Switzerland Past Weather in Steffisburg, Bern, Switzerland — Yesterday and Last 2 Weeks

Now
57 °F

Overcast.


Feels Like: 57 °F
Forecast: 48 / 80 °F
Wind: 1 mph from North

Location: Bern / Belp

Current Time: Jun 27, 2016 at 2:31:14 AM

Latest Report: Jun 27, 2016 at 1:50 AM


Visibility: N/A

Pressure: 30.18 "Hg (28.16 "Hg at 582m altitude)

Humidity: 100%

Dew Point: 57 °F

Location of SteffisburgLocation

Past Weather in Steffisburg — Graph

°F

Steffisburg Temperature Yesterday

Maximum temperature yesterday: 70 °F (at 1:20 PM)
Minimum temperature yesterday: 55 °F (at 3:50 AM)
Average temperature yesterday: 62 °F

High & Low Weather Summary for the Past Weeks

 TemperatureHumidityPressure
High91 °F (Jun 23, 5:20 PM)100% (Jun 12, 1:20 AM)30.27 "Hg (Jun 12, 1:20 AM)
Low48 °F (Jun 15, 12:20 AM)31% (Jun 24, 3:20 PM)29.59 "Hg (Jun 15, 4:50 AM)
Average62 °F83%29.99 "Hg
* Reported Jun 12 1:20 AM — Jun 27 1:20 AM, Steffisburg, Weather by CustomWeather, © 2016

Note: Actual official high and low records may vary slightly from our data, if they occured in-between our weather recording intervals... More about our weather records

Advertising

Steffisburg Weather History for the Previous 24 Hours

Scroll right to see more
 ConditionsComfort  
Time TempWeatherWind HumidityBarometerVisibility
1:20 AM
Mon, Jun 27
57 °FPassing clouds.1 mph100%30.18 "Hg6 mi
12:50 AM57 °FPassing clouds.2 mph100%30.18 "HgN/A
12:20 AM57 °FPartly cloudy.2 mph100%30.18 "HgN/A
11:50 PM
Sun, Jun 26
57 °FPartly cloudy.2 mph100%30.18 "Hg4 mi
11:20 PM57 °FPartly cloudy.1 mph100%30.15 "HgN/A
10:50 PM59 °FPassing clouds.2 mph94%30.15 "HgN/A
10:20 PM59 °FBroken clouds.2 mph94%30.15 "HgN/A
9:50 PM59 °FLight rain. Broken clouds.2 mph94%30.12 "HgN/A
9:20 PM59 °FLight rain. Scattered clouds.5 mph88%30.12 "HgN/A
8:50 PM63 °FPartly sunny.3 mph77%30.09 "HgN/A
8:20 PM64 °FScattered clouds.5 mph73%30.09 "HgN/A
7:50 PM64 °FPartly sunny.3 mph78%30.09 "HgN/A
7:20 PM64 °FBroken clouds.5 mph68%30.09 "HgN/A
6:50 PM66 °FPartly sunny.7 mph64%30.09 "HgN/A
6:20 PM66 °FPartly sunny.8 mph60%30.09 "HgN/A
5:50 PM68 °FPartly sunny.7 mph60%30.09 "HgN/A
5:20 PM70 °FPartly sunny.5 mph53%30.09 "HgN/A
4:50 PM70 °FScattered clouds.5 mph60%30.09 "HgN/A
4:20 PM68 °FBroken clouds.5 mph60%30.09 "HgN/A
3:50 PM68 °FBroken clouds.3 mph56%30.09 "HgN/A
3:20 PM64 °FBroken clouds.7 mph64%30.09 "HgN/A
2:50 PM68 °FOvercast.5 mph60%30.09 "HgN/A
2:20 PM70 °FBroken clouds.7 mph53%30.09 "HgN/A
1:50 PM68 °FBroken clouds.6 mph56%30.09 "HgN/A
1:20 PM70 °FPartly sunny.2 mph60%30.09 "HgN/A
12:50 PM68 °FPartly sunny.5 mph60%30.09 "HgN/A
12:20 PM68 °FPartly sunny.3 mph60%30.09 "HgN/A
11:50 AM66 °FPartly sunny.6 mph68%30.12 "HgN/A
11:20 AM68 °FPartly sunny.3 mph64%30.09 "HgN/A
10:50 AM66 °FScattered clouds.3 mph68%30.12 "HgN/A
10:20 AM64 °FScattered clouds.3 mph73%30.09 "HgN/A
9:50 AM63 °FScattered clouds.3 mph77%30.12 "HgN/A
9:20 AM63 °FPassing clouds.1 mph83%30.12 "HgN/A
8:50 AM61 °FScattered clouds.2 mph83%30.12 "HgN/A
8:20 AM61 °FScattered clouds.3 mph83%30.09 "HgN/A
7:50 AM59 °FScattered clouds.5 mph88%30.12 "HgN/A
7:20 AM61 °FScattered clouds.2 mph83%30.09 "HgN/A
6:50 AM57 °FScattered clouds.2 mph94%30.09 "HgN/A
6:20 AM55 °FPassing clouds.3 mph100%30.09 "HgN/A
5:50 AM55 °FPassing clouds.2 mph100%30.09 "HgN/A
5:20 AM55 °FOvercast.3 mph100%30.09 "HgN/A
4:50 AM55 °FOvercast.2 mph100%30.09 "HgN/A
4:20 AM55 °FPartly cloudy.2 mph100%30.09 "HgN/A
3:50 AM55 °FPassing clouds.5 mph100%30.09 "HgN/A
3:20 AM57 °FPassing clouds.2 mph94%30.09 "HgN/A
2:50 AM57 °FPassing clouds.5 mph94%30.09 "HgN/A
2:20 AM57 °FPassing clouds.5 mph100%30.12 "HgN/A
Weather by CustomWeather, © 2016

See weather overviewHow to use our weather pages